• In Belarus
  • List of Countries
  • For 7 days
  • Water Temperature
  • Satellite Maps
  • Weather Map
  • Weather Widgets
  • user-avatar
    Login

    Hourly Weather Ebikon

    Today, 11 December, Monday

    Time Temperature Precipitation Wind Pressure Humidity
    00:00 +2°C° 0.7 mm 3 mps 704 mmHg 89%
    01:00 +3°C° 0 mm 3 mps 703 mmHg 86%
    02:00 +3°C° 0.2 mm 3 mps 703 mmHg 86%
    03:00 +3°C° 0.2 mm 3 mps 702 mmHg 86%
    04:00 +3°C° 0.2 mm 3 mps 702 mmHg 86%
    05:00 +3°C° 0.2 mm 3 mps 701 mmHg 86%
    06:00 +3°C° 0.2 mm 3 mps 700 mmHg 86%
    07:00 +4°C° 0 mm 3 mps 700 mmHg 85%
    08:00 +4°C° 0.2 mm 3 mps 700 mmHg 85%
    09:00 +4°C° 0.2 mm 3 mps 699 mmHg 86%
    10:00 +4°C° 0.2 mm 3 mps 699 mmHg 86%
    11:00 +5°C° 0.2 mm 3 mps 699 mmHg 87%
    12:00 +5°C° 0.2 mm 3 mps 699 mmHg 87%
    13:00 +5°C° 0.2 mm 3 mps 699 mmHg 88%
    14:00 +6°C° 0.4 mm 2 mps 699 mmHg 88%
    15:00 +6°C° 0.4 mm 2 mps 700 mmHg 89%
    16:00 +5°C° 0.4 mm 2 mps 700 mmHg 90%
    17:00 +5°C° 1 mm 2 mps 700 mmHg 91%
    18:00 +5°C° 1 mm 2 mps 701 mmHg 92%
    19:00 +5°C° 1 mm 2 mps 702 mmHg 93%
    20:00 +5°C° 1.2 mm 2 mps 702 mmHg 92%
    21:00 +5°C° 1.2 mm 2 mps 702 mmHg 91%
    22:00 +5°C° 1.2 mm 2 mps 703 mmHg 91%
    23:00 +5°C° 0.7 mm 2 mps 704 mmHg 90%

    Tomorrow, 12 December, Tuesday

    Time Temperature Precipitation Wind Pressure Humidity
    00:00 +4°C° 0.7 mm 3 mps 704 mmHg 90%
    01:00 +4°C° 0.7 mm 3 mps 705 mmHg 90%
    02:00 +3°C° 0.5 mm 3 mps 706 mmHg 90%
    03:00 +3°C° 0.5 mm 3 mps 707 mmHg 90%
    04:00 +1°C° 0.5 mm 4 mps 708 mmHg 90%
    05:00 +2°C° 0.3 mm 3 mps 710 mmHg 91%
    06:00 +1°C° 0.3 mm 3 mps 711 mmHg 91%
    07:00 +1°C° 0.3 mm 3 mps 712 mmHg 92%
    08:00 +1°C° 0.3 mm 3 mps 713 mmHg 92%
    09:00 +2°C° 0.3 mm 2 mps 714 mmHg 92%
    10:00 +2°C° 0.3 mm 2 mps 715 mmHg 92%
    11:00 +3°C° 0.4 mm 2 mps 716 mmHg 91%
    12:00 +3°C° 0.4 mm 2 mps 716 mmHg 90%
    13:00 +3°C° 0.4 mm 2 mps 717 mmHg 90%
    14:00 +3°C° 0.4 mm 2 mps 718 mmHg 90%
    15:00 +2°C° 0.4 mm 2 mps 718 mmHg 91%
    16:00 +2°C° 0.4 mm 2 mps 719 mmHg 91%
    17:00 +1°C° 0.1 mm 2 mps 720 mmHg 92%
    18:00 -1°C° 0.1 mm 2 mps 721 mmHg 93%
    19:00 -2°C° 0.1 mm 2 mps 722 mmHg 94%
    20:00 -2°C° 0 mm 2 mps 722 mmHg 94%
    21:00 -3°C° 0 mm 2 mps 723 mmHg 93%
    22:00 -3°C° 0 mm 2 mps 724 mmHg 93%
    23:00 -4°C° 0 mm 2 mps 724 mmHg 91%

    Day after tomorrow, 13 December, Wednesday

    Time Temperature Precipitation Wind Pressure Humidity
    00:00 -5°C° 0 mm 2 mps 724 mmHg 90%
    01:00 -5°C° 0 mm 2 mps 725 mmHg 88%
    02:00 -5°C° 0 mm 2 mps 724 mmHg 84%
    03:00 -6°C° 0 mm 2 mps 724 mmHg 79%
    04:00 -6°C° 0 mm 2 mps 724 mmHg 74%
    05:00 -6°C° 0 mm 2 mps 724 mmHg 71%
    06:00 -6°C° 0 mm 2 mps 724 mmHg 69%
    07:00 -6°C° 0 mm 2 mps 724 mmHg 66%
    08:00 -5°C° 0 mm 2 mps 724 mmHg 65%
    09:00 -3°C° 0 mm 2 mps 724 mmHg 63%
    10:00 -2°C° 0 mm 2 mps 723 mmHg 62%
    11:00 +1°C° 0 mm 2 mps 722 mmHg 62%
    12:00 +3°C° 0 mm 2 mps 721 mmHg 62%
    13:00 +5°C° 0 mm 2 mps 720 mmHg 62%
    14:00 +4°C° 0.2 mm 2 mps 720 mmHg 66%
    15:00 +4°C° 0.2 mm 2 mps 720 mmHg 70%
    16:00 +3°C° 0.2 mm 2 mps 719 mmHg 74%
    17:00 +3°C° 0.3 mm 2 mps 719 mmHg 76%
    18:00 +3°C° 0.3 mm 2 mps 719 mmHg 79%
    19:00 +3°C° 0.3 mm 2 mps 719 mmHg 81%
    20:00 +3°C° 0.3 mm 2 mps 719 mmHg 81%
    21:00 +3°C° 0.3 mm 2 mps 718 mmHg 82%
    22:00 +3°C° 0.3 mm 3 mps 718 mmHg 83%
    23:00 +3°C° 0.4 mm 3 mps 717 mmHg 83%

    14 December, Thursday

    Time Temperature Precipitation Wind Pressure Humidity
    00:00 +3°C° 0.4 mm 3 mps 717 mmHg 83%
    01:00 +3°C° 0.4 mm 3 mps 716 mmHg 83%
    02:00 +4°C° 0.5 mm 3 mps 716 mmHg 85%
    03:00 +4°C° 0.5 mm 3 mps 715 mmHg 86%
    04:00 +4°C° 0.5 mm 3 mps 715 mmHg 88%
    05:00 +4°C° 0.5 mm 3 mps 715 mmHg 89%
    06:00 +4°C° 0.5 mm 3 mps 715 mmHg 90%
    07:00 +4°C° 0.5 mm 3 mps 715 mmHg 91%
    08:00 +5°C° 0.4 mm 3 mps 715 mmHg 91%
    09:00 +5°C° 0.4 mm 3 mps 715 mmHg 91%
    10:00 +5°C° 0.4 mm 3 mps 715 mmHg 91%
    11:00 +7°C° 0.1 mm 3 mps 714 mmHg 91%
    12:00 +6°C° 0.1 mm 4 mps 713 mmHg 90%
    13:00 +6°C° 0.1 mm 4 mps 713 mmHg 89%
    14:00 +6°C° 0.1 mm 4 mps 712 mmHg 88%
    15:00 +6°C° 0.1 mm 4 mps 711 mmHg 88%
    16:00 +6°C° 0.1 mm 4 mps 711 mmHg 87%
    17:00 +5°C° 0.7 mm 4 mps 711 mmHg 87%
    18:00 +5°C° 0.7 mm 4 mps 711 mmHg 87%
    19:00 +5°C° 0.7 mm 4 mps 711 mmHg 87%
    20:00 +5°C° 1.7 mm 4 mps 711 mmHg 88%
    21:00 +4°C° 1.7 mm 4 mps 711 mmHg 90%
    22:00 +4°C° 1.7 mm 3 mps 711 mmHg 91%
    23:00 +4°C° 1.5 mm 3 mps 711 mmHg 92%

    15 December, Friday

    Time Temperature Precipitation Wind Pressure Humidity
    00:00 +4°C° 1.5 mm 3 mps 711 mmHg 93%
    01:00 +3°C° 1.5 mm 3 mps 711 mmHg 93%
    02:00 +3°C° 1.3 mm 3 mps 711 mmHg 93%
    03:00 +4°C° 1.3 mm 2 mps 711 mmHg 93%
    04:00 +3°C° 1.3 mm 2 mps 711 mmHg 93%
    05:00 +3°C° 0.9 mm 2 mps 711 mmHg 93%
    06:00 +2°C° 0.9 mm 2 mps 711 mmHg 93%
    07:00 +2°C° 0.9 mm 2 mps 711 mmHg 93%
    08:00 +2°C° 0.2 mm 2 mps 711 mmHg 91%
    09:00 +2°C° 0.2 mm 2 mps 712 mmHg 90%
    10:00 +2°C° 0.2 mm 2 mps 712 mmHg 89%
    11:00 +2°C° 0 mm 3 mps 712 mmHg 86%
    12:00 +2°C° 0 mm 3 mps 711 mmHg 83%
    13:00 +1°C° 0 mm 4 mps 711 mmHg 80%
    14:00 +2°C° 0 mm 3 mps 711 mmHg 82%
    15:00 +1°C° 0 mm 3 mps 711 mmHg 84%
    16:00 +1°C° 0 mm 2 mps 711 mmHg 86%
    17:00 +1°C° 0.4 mm 2 mps 712 mmHg 88%
    18:00 +1°C° 0.4 mm 2 mps 713 mmHg 90%
    19:00 0°C° 0.4 mm 3 mps 713 mmHg 92%
    20:00 0°C° 0.4 mm 3 mps 714 mmHg 92%
    21:00 0°C° 0.4 mm 3 mps 715 mmHg 92%
    22:00 0°C° 0.4 mm 3 mps 716 mmHg 91%
    23:00 -1°C° 0.2 mm 3 mps 716 mmHg 91%

    16 December, Saturday

    Time Temperature Precipitation Wind Pressure Humidity
    00:00 -1°C° 0.2 mm 3 mps 717 mmHg 91%
    01:00 -2°C° 0.2 mm 3 mps 717 mmHg 91%
    02:00 -2°C° 0.3 mm 3 mps 718 mmHg 91%
    03:00 -2°C° 0.3 mm 3 mps 718 mmHg 90%
    04:00 -2°C° 0.3 mm 3 mps 719 mmHg 90%
    05:00 -2°C° 0.3 mm 3 mps 719 mmHg 91%
    06:00 -2°C° 0.3 mm 3 mps 720 mmHg 91%
    07:00 -2°C° 0.3 mm 3 mps 720 mmHg 91%
    08:00 -1°C° 0.1 mm 3 mps 721 mmHg 90%
    09:00 -1°C° 0.1 mm 3 mps 721 mmHg 89%
    10:00 -1°C° 0.1 mm 2 mps 721 mmHg 88%
    11:00 0°C° 0 mm 3 mps 721 mmHg 86%
    12:00 0°C° 0 mm 3 mps 721 mmHg 83%
    13:00 +1°C° 0 mm 3 mps 721 mmHg 81%
    14:00 0°C° 0.1 mm 3 mps 721 mmHg 84%
    15:00 +1°C° 0.1 mm 2 mps 721 mmHg 86%
    16:00 -1°C° 0.1 mm 2 mps 722 mmHg 88%
    17:00 -1°C° 0 mm 2 mps 722 mmHg 88%
    18:00 -2°C° 0 mm 2 mps 723 mmHg 88%
    19:00 -3°C° 0 mm 2 mps 723 mmHg 88%
    20:00 -4°C° 0 mm 2 mps 723 mmHg 88%
    21:00 -4°C° 0 mm 2 mps 724 mmHg 87%
    22:00 -5°C° 0 mm 2 mps 724 mmHg 87%
    23:00 -5°C° 0 mm 2 mps 724 mmHg 86%
    Show more